Tracking 31027 objects as of 19-Jul-2025
HD Live streaming from Space Station
objects crossing your sky now

SCOUT G-1 DEB

Track SCOUT G-1 DEB now!
10-day predictions


NORAD ID: 18562
Int'l Code: 1987-080H
Perigee: 981.2 km
Apogee: 1,252.0 km
Inclination: 89.9 °
Period: 107.5 minutes
Semi major axis: 7487 km
RCS: 0.039 m2 (small)
Launch date: September 16, 1987
Source: United States (US)
Launch site: AIR FORCE WESTERN TEST RANGE (AFWTR)

Note: This is SATELLITE DEBRIS
Your satellite tracking list
LANDSAT 5
Track 1 satellite(s)




NASA's NSSDC Master Catalog

Two Line Element Set (TLE):
1 18562U 87080H   25199.33317095  .00000238  00000-0  38211-3 0  9993
2 18562  89.9131 157.3727 0180840  25.2862 127.3877 13.39962511845825
Source of the keplerian elements: AFSPC